Hourly Weather Chaikivka

Today, 13 June, Sunday

Time Temperature Precipitation Wind Pressure Humidity
00:00 +16°C° 0 mm 1 mps 743 mmHg 92%
01:00 +15°C° 0 mm 1 mps 743 mmHg 92%
02:00 +15°C° 0 mm 1 mps 743 mmHg 94%
03:00 +15°C° 0 mm 1 mps 743 mmHg 93%
04:00 +16°C° 0 mm 1 mps 743 mmHg 93%
05:00 +16°C° 0 mm 1 mps 743 mmHg 93%
06:00 +18°C° 0.1 mm 2 mps 743 mmHg 88%
07:00 +19°C° 0.1 mm 2 mps 743 mmHg 83%
08:00 +21°C° 0 mm 2 mps 743 mmHg 77%
09:00 +22°C° 0.8 mm 3 mps 743 mmHg 73%
10:00 +22°C° 0.8 mm 3 mps 743 mmHg 68%
11:00 +23°C° 0.8 mm 4 mps 743 mmHg 64%
12:00 +25°C° 0.2 mm 4 mps 743 mmHg 61%
13:00 +25°C° 0.2 mm 4 mps 743 mmHg 58%
14:00 +26°C° 0.2 mm 3 mps 743 mmHg 56%
15:00 +25°C° 0.2 mm 3 mps 743 mmHg 61%
16:00 +24°C° 0.2 mm 3 mps 743 mmHg 66%
17:00 +22°C° 0.2 mm 3 mps 743 mmHg 72%
18:00 +21°C° 0.1 mm 2 mps 743 mmHg 75%
19:00 +20°C° 0.1 mm 2 mps 743 mmHg 78%
20:00 +20°C° 0.1 mm 1 mps 744 mmHg 81%
21:00 +19°C° 0 mm 1 mps 744 mmHg 82%
22:00 +19°C° 0 mm 1 mps 744 mmHg 83%
23:00 +18°C° 0 mm 1 mps 744 mmHg 84%

Tomorrow, 14 June, Monday

Time Temperature Precipitation Wind Pressure Humidity
00:00 +18°C° 0 mm 1 mps 744 mmHg 86%
01:00 +16°C° 0 mm 2 mps 744 mmHg 87%
02:00 +16°C° 0 mm 2 mps 744 mmHg 88%
03:00 +16°C° 0 mm 2 mps 744 mmHg 88%
04:00 +17°C° 0 mm 2 mps 745 mmHg 89%
05:00 +17°C° 0 mm 2 mps 745 mmHg 89%
06:00 +19°C° 0 mm 2 mps 745 mmHg 83%
07:00 +20°C° 0 mm 2 mps 745 mmHg 78%
08:00 +23°C° 0 mm 2 mps 746 mmHg 72%
09:00 +24°C° 0.2 mm 3 mps 746 mmHg 68%
10:00 +25°C° 0.2 mm 3 mps 746 mmHg 64%
11:00 +26°C° 0.2 mm 3 mps 746 mmHg 59%
12:00 +26°C° 0.2 mm 3 mps 746 mmHg 58%
13:00 +27°C° 0.2 mm 3 mps 746 mmHg 56%
14:00 +27°C° 0.2 mm 2 mps 747 mmHg 55%
15:00 +27°C° 0.2 mm 2 mps 746 mmHg 59%
16:00 +26°C° 0.2 mm 2 mps 746 mmHg 63%
17:00 +25°C° 0.2 mm 2 mps 746 mmHg 67%
18:00 +24°C° 0.2 mm 2 mps 746 mmHg 72%
19:00 +21°C° 0.2 mm 2 mps 746 mmHg 77%
20:00 +20°C° 0.2 mm 2 mps 746 mmHg 82%
21:00 +19°C° 0 mm 2 mps 746 mmHg 83%
22:00 +19°C° 0 mm 2 mps 746 mmHg 85%
23:00 +19°C° 0 mm 1 mps 746 mmHg 86%

Day after tomorrow, 15 June, Tuesday

Time Temperature Precipitation Wind Pressure Humidity
00:00 +18°C° 0.1 mm 2 mps 746 mmHg 88%
01:00 +17°C° 0.1 mm 2 mps 746 mmHg 89%
02:00 +17°C° 0.1 mm 2 mps 746 mmHg 91%
03:00 +17°C° 0 mm 2 mps 746 mmHg 90%
04:00 +18°C° 0 mm 2 mps 746 mmHg 90%
05:00 +18°C° 0 mm 2 mps 746 mmHg 90%
06:00 +19°C° 0.2 mm 2 mps 746 mmHg 85%
07:00 +21°C° 0.2 mm 2 mps 746 mmHg 80%
08:00 +24°C° 0.2 mm 2 mps 746 mmHg 76%
09:00 +25°C° 0.5 mm 2 mps 746 mmHg 71%
10:00 +26°C° 0.5 mm 2 mps 746 mmHg 65%
11:00 +27°C° 0.5 mm 2 mps 745 mmHg 60%
12:00 +27°C° 0.1 mm 2 mps 745 mmHg 59%
13:00 +27°C° 0.1 mm 2 mps 745 mmHg 57%
14:00 +28°C° 0.1 mm 1 mps 744 mmHg 55%
15:00 +27°C° 0.4 mm 2 mps 744 mmHg 60%
16:00 +27°C° 0.4 mm 2 mps 744 mmHg 66%
17:00 +26°C° 0.4 mm 2 mps 744 mmHg 71%
18:00 +24°C° 0.3 mm 2 mps 744 mmHg 75%
19:00 +23°C° 0.3 mm 1 mps 744 mmHg 78%
20:00 +22°C° 0.3 mm 1 mps 744 mmHg 82%
21:00 +21°C° 0.1 mm 1 mps 744 mmHg 84%
22:00 +20°C° 0.1 mm 1 mps 743 mmHg 85%
23:00 +20°C° 0.1 mm 1 mps 743 mmHg 87%

16 June, Wednesday

Time Temperature Precipitation Wind Pressure Humidity
00:00 +20°C° 0 mm 1 mps 743 mmHg 88%
01:00 +19°C° 0 mm 1 mps 743 mmHg 88%
02:00 +19°C° 0 mm 1 mps 743 mmHg 89%
03:00 +19°C° 0 mm 1 mps 743 mmHg 89%
04:00 +20°C° 0 mm 1 mps 743 mmHg 88%
05:00 +20°C° 0 mm 1 mps 744 mmHg 88%
06:00 +21°C° 0.3 mm 1 mps 744 mmHg 84%
07:00 +23°C° 0.3 mm 1 mps 744 mmHg 81%
08:00 +24°C° 0.3 mm 1 mps 744 mmHg 77%
09:00 +25°C° 0.2 mm 2 mps 744 mmHg 71%
10:00 +26°C° 0.2 mm 2 mps 744 mmHg 65%
11:00 +27°C° 0.2 mm 2 mps 744 mmHg 60%
12:00 +28°C° 0.2 mm 2 mps 744 mmHg 59%
13:00 +28°C° 0.2 mm 2 mps 744 mmHg 58%
14:00 +28°C° 0.2 mm 3 mps 744 mmHg 58%
15:00 +27°C° 0.5 mm 3 mps 744 mmHg 63%
16:00 +26°C° 0.5 mm 4 mps 744 mmHg 69%
17:00 +26°C° 0.5 mm 4 mps 744 mmHg 75%
18:00 +23°C° 1.9 mm 4 mps 744 mmHg 80%
19:00 +21°C° 1.9 mm 4 mps 744 mmHg 86%
20:00 +20°C° 1.9 mm 4 mps 745 mmHg 91%
21:00 +19°C° 0.9 mm 4 mps 745 mmHg 92%
22:00 +19°C° 0.9 mm 4 mps 745 mmHg 92%
23:00 +18°C° 0.9 mm 4 mps 745 mmHg 93%

17 June, Thursday

Time Temperature Precipitation Wind Pressure Humidity
00:00 +18°C° 0.1 mm 4 mps 745 mmHg 93%
01:00 +18°C° 0.1 mm 4 mps 745 mmHg 94%
02:00 +18°C° 0.1 mm 4 mps 745 mmHg 95%
03:00 +18°C° 0.5 mm 4 mps 746 mmHg 95%
04:00 +18°C° 0.5 mm 4 mps 746 mmHg 96%
05:00 +19°C° 0.5 mm 4 mps 747 mmHg 96%
06:00 +19°C° 0.2 mm 4 mps 747 mmHg 95%
07:00 +20°C° 0.2 mm 4 mps 747 mmHg 93%
08:00 +20°C° 0.2 mm 5 mps 748 mmHg 92%
09:00 +21°C° 0.3 mm 5 mps 748 mmHg 89%
10:00 +22°C° 0.3 mm 5 mps 748 mmHg 85%
11:00 +23°C° 0.3 mm 5 mps 749 mmHg 82%
12:00 +25°C° 0.5 mm 5 mps 749 mmHg 80%
13:00 +25°C° 0.5 mm 5 mps 749 mmHg 79%
14:00 +25°C° 0.5 mm 5 mps 749 mmHg 78%
15:00 +24°C° 0.4 mm 6 mps 749 mmHg 79%
16:00 +24°C° 0.4 mm 6 mps 749 mmHg 79%
17:00 +23°C° 0.4 mm 6 mps 749 mmHg 80%
18:00 +22°C° 0.1 mm 6 mps 750 mmHg 82%
19:00 +21°C° 0.1 mm 5 mps 750 mmHg 83%
20:00 +20°C° 0.1 mm 5 mps 750 mmHg 85%
21:00 +20°C° 0 mm 5 mps 750 mmHg 84%
22:00 +19°C° 0 mm 6 mps 750 mmHg 83%
23:00 +17°C° 0 mm 6 mps 750 mmHg 82%

18 June, Friday

Time Temperature Precipitation Wind Pressure Humidity
00:00 +17°C° 0 mm 6 mps 750 mmHg 82%
01:00 +16°C° 0 mm 6 mps 751 mmHg 82%
02:00 +16°C° 0 mm 6 mps 751 mmHg 81%
03:00 +15°C° 0 mm 6 mps 751 mmHg 82%
04:00 +15°C° 0 mm 6 mps 751 mmHg 83%
05:00 +15°C° 0 mm 6 mps 751 mmHg 84%
06:00 +16°C° 0 mm 6 mps 751 mmHg 80%
07:00 +18°C° 0 mm 7 mps 752 mmHg 76%
08:00 +20°C° 0 mm 7 mps 752 mmHg 72%
09:00 +21°C° 0 mm 7 mps 752 mmHg 68%
10:00 +22°C° 0 mm 7 mps 752 mmHg 65%
11:00 +23°C° 0 mm 7 mps 752 mmHg 61%
12:00 +23°C° 0 mm 7 mps 752 mmHg 61%
13:00 +24°C° 0 mm 7 mps 752 mmHg 60%
14:00 +24°C° 0 mm 7 mps 752 mmHg 59%
15:00 +23°C° 0 mm 6 mps 752 mmHg 62%
16:00 +23°C° 0 mm 6 mps 752 mmHg 65%
17:00 +23°C° 0 mm 6 mps 752 mmHg 68%
18:00 +21°C° 0 mm 5 mps 752 mmHg 72%
19:00 +20°C° 0 mm 4 mps 752 mmHg 76%
20:00 +19°C° 0 mm 4 mps 752 mmHg 80%
21:00 +18°C° 0 mm 4 mps 753 mmHg 81%
22:00 +17°C° 0 mm 4 mps 753 mmHg 82%
23:00 +17°C° 0 mm 4 mps 753 mmHg 83%
Show more

We Need Your Consent

Meteoprog and our Service Providers may store and access personal data such as cookies, device identifiers or other similar technologies on your device and process such data to personalise content and ads, as well as provide social media features and to analyse the traffic.

  • Store and/or access information on your device

    Cookies, device identifiers or other information can be stored or accessed on your device for the purposes indicated above.

  • Personalised ads and content, ad and content measurement, audience insights, and products development

    Ads and content can be personalised based on a profile. More data can be added to better personalise ads and content. Ad and content performance can be measured. Insights about the audience who saw the ads and content can be derived. Such data can be used to develop or improve user’s experience, systems and software.

By clicking ‘I Agree’ you will allow the use of indicated cookies, device identifiers, web beacons or other similar technologies. Your settings can be changed in the browser on your device.

For certain purposes, legitimate interests may be relied on, rather than consent. You can read more about this in our Privacy and Cookie Policy.